Theta_e
325 326 327 327 327 326 325 325 324 323 320 318 318 317 316 316 316 317 317 316 312 309 307 305 302 301 301 301 304 305 304 304 304 304 303 304 305 306 306 306 306 306 306 306 306 306 306 307 307 307 307 307 306 305 303 302 302 302 302 302 301 301 301 300 300 300 300 300 300 299 299 299 299 298
325 326 326 326 326 325 325 324 324 322 319 318 317 317 317 316 316 316 317 317 313 309 308 307 303 301 301 302 305 305 305 306 307 307 306 306 306 307 307 307 307 306 306 306 306 306 306 306 306 306 307 306 306 306 305 303 302 302 303 302 302 302 302 302 302 301 301 301 301 300 300 299 299 299
326 325 325 325 326 325 324 324 324 321 318 317 317 317 316 315 315 314 315 316 314 310 309 308 305 304 303 303 306 306 306 307 307 307 307 307 307 307 307 307 307 307 307 306 306 306 306 306 306 306 306 306 306 306 306 304 303 302 302 303 303 302 302 302 302 302 302 302 302 301 300 300 299 299
325 325 325 325 325 324 323 323 323 321 318 317 316 316 315 313 314 314 313 314 314 310 309 308 307 306 305 305 306 306 306 307 307 307 307 307 307 307 307 307 307 307 306 306 306 306 306 306 306 306 306 306 306 306 305 305 303 302 302 302 303 303 302 302 302 302 302 302 302 301 301 300 299 299
324 325 324 325 325 324 323 323 322 320 318 317 317 316 316 314 314 314 312 312 312 311 311 309 307 307 307 306 306 306 306 307 307 307 307 307 307 307 307 307 307 306 306 306 306 305 305 305 305 305 305 305 306 305 305 305 304 302 302 302 302 302 302 302 302 302 302 302 302 301 301 300 299 299
321 323 324 323 324 323 322 322 322 321 319 319 318 318 317 317 316 314 312 310 310 311 311 310 308 307 308 307 307 306 306 307 307 307 308 308 308 308 307 307 307 306 306 306 306 305 305 305 305 305 305 305 306 306 305 304 303 302 302 302 302 302 302 302 302 302 302 301 301 301 301 300 299 298
315 319 321 322 322 322 322 321 321 321 320 320 320 320 319 319 318 316 314 311 309 310 311 309 308 307 307 308 307 307 307 307 307 307 307 308 308 308 308 308 308 307 307 307 306 306 305 305 305 305 305 306 306 306 305 304 303 302 302 302 302 302 302 302 302 301 301 301 300 301 301 300 299 298
313 313 315 317 319 320 321 321 321 321 321 320 320 320 320 320 319 318 316 314 310 308 309 308 308 307 307 308 308 308 307 307 307 307 307 307 307 308 308 308 308 308 308 308 307 307 306 305 305 305 306 306 306 305 304 303 303 302 302 302 302 302 301 301 301 301 300 300 300 300 300 300 299 298
313 313 313 314 314 316 317 318 319 319 319 318 317 317 318 319 319 317 316 315 312 308 308 308 307 307 307 307 308 308 308 308 308 307 307 307 307 307 307 307 307 307 307 308 308 308 307 306 305 305 306 306 306 305 304 303 302 302 302 302 302 302 301 301 301 300 300 300 299 299 300 300 300 299
313 313 313 314 313 314 314 315 315 315 315 315 315 315 315 315 316 316 315 315 313 310 308 308 307 307 307 307 307 307 308 308 308 308 308 308 308 308 308 307 307 306 307 307 308 308 307 306 306 306 306 306 305 304 303 302 302 302 302 302 301 301 301 300 300 300 299 299 299 299 299 299 300 299
313 312 313 313 313 313 314 314 314 314 314 314 314 314 313 312 314 314 313 313 312 310 308 308 307 307 307 307 307 307 307 307 307 308 308 308 308 308 308 308 307 307 307 308 308 307 306 306 306 306 305 304 303 302 302 302 302 302 301 301 300 300 300 299 299 299 298 298 298 299 299 299 299 299
313 313 315 315 314 313 313 313 314 314 314 315 314 314 312 311 312 312 312 311 310 308 307 307 307 307 307 307 307 307 307 307 307 307 307 307 308 308 308 307 307 307 308 307 307 307 306 306 305 304 303 302 301 301 301 301 301 301 300 300 299 299 299 298 298 298 297 298 298 298 298 299 299 299
313 314 315 316 316 315 315 315 316 316 316 315 315 314 313 311 310 310 309 309 308 307 307 307 307 307 307 307 307 307 308 308 309 308 308 308 308 308 307 307 307 307 307 307 306 306 305 304 303 302 301 300 300 300 300 300 300 299 299 298 298 298 298 297 297 297 297 297 297 297 298 298 298 299
315 314 315 316 317 317 317 317 317 317 317 317 316 315 314 313 311 309 309 308 307 307 307 307 307 307 307 307 308 308 309 310 310 309 308 308 308 308 307 307 307 307 307 307 305 304 303 302 301 300 300 300 299 299 299 299 298 298 298 297 297 297 297 297 296 296 296 296 296 296 296 297 297 297
316 315 315 316 317 318 318 317 318 317 317 318 317 316 315 314 313 313 311 310 309 309 308 307 307 307 308 308 309 310 310 310 310 309 309 308 308 308 308 307 307 307 307 306 304 302 301 301 300 300 299 299 298 298 298 298 297 297 297 297 297 296 296 296 296 296 295 295 295 295 295 295 295 295
317 317 317 317 318 319 319 318 318 318 318 317 317 317 316 315 314 314 314 314 313 312 311 309 308 308 308 309 310 310 311 310 309 309 309 309 308 308 308 307 306 305 305 304 303 301 301 300 300 299 299 298 298 297 297 297 297 297 297 296 296 296 296 296 295 295 295 295 295 294 294 294 294 294
318 318 318 318 319 319 319 319 319 319 319 319 318 317 316 315 315 314 314 314 314 313 313 313 312 311 310 310 310 311 311 310 309 309 309 309 308 308 307 306 305 304 303 303 301 300 300 300 299 299 298 298 298 297 297 297 297 296 296 296 296 295 295 295 295 294 294 294 293 293 293 293 293 293
318 318 319 320 320 320 320 320 320 320 320 319 319 318 317 316 316 316 315 314 314 314 314 313 314 314 313 312 312 311 310 310 310 309 309 308 307 307 305 304 303 302 301 301 300 299 299 299 298 298 298 297 297 297 297 297 296 296 296 295 295 295 295 294 294 294 293 293 292 292 292 292 292 292
320 319 319 320 321 321 321 321 320 320 319 319 319 318 318 317 316 316 316 316 316 315 314 313 313 313 313 313 312 311 309 309 309 309 309 308 307 306 304 302 301 300 299 299 299 298 298 298 298 298 297 297 297 297 296 296 295 295 295 295 295 294 294 294 293 293 293 292 292 292 292 292 292 292
319 319 319 320 320 320 320 319 319 319 319 319 319 318 317 316 316 316 316 316 316 315 313 313 313 313 313 312 312 311 311 310 309 309 308 307 306 304 302 300 299 299 298 298 298 298 298 297 297 297 297 297 297 296 296 295 295 295 295 294 294 294 293 293 293 293 292 292 292 292 292 292 292 292
319 319 319 320 320 319 318 317 317 317 318 318 318 317 316 315 315 315 315 315 314 313 312 312 312 312 312 312 311 311 310 309 308 308 307 305 303 302 300 299 298 298 298 298 298 298 297 296 296 296 296 296 295 295 294 294 294 294 294 294 294 293 293 293 292 292 292 292 292 292 292 292 292 292
319 319 319 319 318 318 317 317 317 317 317 317 318 317 315 314 314 314 314 313 312 311 311 312 312 312 311 310 309 308 307 307 307 306 305 303 302 301 300 299 298 298 298 298 298 297 296 296 295 295 294 294 294 294 294 294 294 294 293 293 293 292 292 292 292 292 292 292 292 292 292 292 292 292
319 318 318 318 318 317 317 317 317 317 317 317 317 317 315 314 314 314 313 312 312 311 311 311 310 309 308 307 307 306 306 305 304 303 303 302 301 301 301 300 299 299 298 297 297 296 295 295 294 294 293 293 293 293 293 293 293 292 292 292 292 292 292 292 292 292 292 292 292 292 292 292 292 292
319 319 319 319 318 318 317 317 317 317 316 316 317 317 315 315 315 314 312 311 311 310 310 309 308 307 306 305 305 305 304 303 303 302 302 302 301 301 300 300 299 298 297 296 296 295 294 294 293 292 292 292 293 292 292 292 291 291 291 291 291 291 291 291 291 291 291 291 292 292 292 292 292 292
317 317 318 318 318 317 317 317 317 317 316 316 317 317 317 316 316 314 312 310 309 309 308 307 306 305 305 304 303 303 302 302 302 301 301 300 300 299 299 298 297 296 296 295 294 294 293 292 292 291 291 291 291 291 291 290 290 290 290 290 290 290 291 291 291 291 291 291 292 292 292 292 292 292
315 316 317 317 317 317 317 317 317 317 316 316 317 317 317 316 315 314 312 309 307 307 306 305 304 304 303 303 302 301 301 301 300 300 299 298 298 297 297 296 295 295 294 293 293 292 291 291 291 291 290 290 290 290 290 290 290 289 290 290 290 290 290 290 290 290 291 291 292 292 292 292 292 292
315 315 316 316 316 316 315 315 315 315 316 316 317 317 316 314 311 310 310 308 306 306 305 304 303 303 302 302 301 300 299 299 298 298 297 297 296 296 295 294 293 292 292 292 291 291 291 290 290 290 290 290 290 290 289 289 289 289 290 290 290 290 290 290 290 291 291 291 292 292 292 292 292 292
314 314 315 315 316 315 314 312 311 312 314 315 316 316 315 312 309 308 307 306 306 305 304 304 303 302 301 300 299 299 298 297 296 296 296 295 294 294 293 292 291 291 291 291 290 290 290 290 290 289 289 289 289 290 290 290 290 290 290 290 290 290 290 290 291 291 291 291 291 291 291 291 291 291
310 310 311 312 312 312 311 310 309 310 311 313 314 314 312 310 308 307 306 305 305 304 303 303 302 300 299 299 298 297 296 296 295 295 294 293 292 292 291 291 290 290 290 290 290 290 289 289 289 289 289 289 289 289 290 290 290 290 290 290 290 290 290 291 291 291 291 290 290 290 290 290 291 291
305 305 306 307 307 307 307 307 307 308 309 310 310 310 310 309 307 305 304 304 304 304 302 301 300 299 298 297 296 296 295 295 294 293 293 292 291 291 291 290 290 290 290 290 289 289 289 289 289 289 289 290 290 290 290 290 290 290 290 290 290 290 290 291 291 290 290 290 290 290 291 291 291 291
304 304 304 304 304 304 304 304 305 306 307 307 306 307 308 309 307 305 303 302 302 301 300 300 299 297 296 295 295 295 294 294 293 292 292 291 291 291 290 290 290 290 290 289 289 289 289 289 289 289 290 290 290 290 290 290 290 289 290 290 290 290 290 290 290 290 290 290 290 291 291 291 291 291
304 303 303 303 303 303 303 303 303 303 304 305 305 306 307 307 306 305 303 302 301 300 299 298 297 296 295 295 294 294 293 293 292 292 291 291 291 291 290 290 290 290 289 289 289 289 289 289 290 290 290 290 290 290 290 289 289 289 289 290 290 290 290 290 290 290 290 290 290 290 290 290 291 290
303 302 301 301 301 302 302 302 301 302 302 303 303 305 306 305 304 303 302 302 302 301 299 298 297 296 295 294 294 293 292 292 292 291 291 291 291 291 290 290 290 290 289 289 289 289 289 290 290 290 290 290 290 289 289 289 289 290 290 290 290 290 290 290 290 290 290 290 290 290 290 290 290 289
302 302 301 300 300 300 300 301 301 301 301 301 302 302 303 303 303 302 302 301 300 299 298 298 297 296 295 294 293 292 292 292 291 291 291 291 291 291 291 290 290 289 289 289 289 289 289 290 290 290 290 289 289 289 289 289 290 290 290 290 290 290 290 290 290 291 291 290 290 290 289 289 289 289
301 301 300 300 299 299 299 300 300 300 300 301 301 301 300 300 301 300 299 299 298 298 297 297 296 295 294 293 293 292 292 292 291 291 291 291 291 291 290 290 290 289 289 289 289 289 290 290 290 290 290 290 289 290 290 290 289 290 290 290 290 290 290 290 291 291 291 290 289 289 288 288 288 288
301 301 300 299 298 298 298 298 299 299 299 300 301 300 299 298 298 298 298 298 297 297 296 296 295 294 293 293 292 292 292 291 291 291 291 291 291 290 290 290 289 289 289 289 289 290 290 290 290 290 290 290 290 290 290 290 290 290 290 290 290 290 290 291 291 291 290 289 289 288 287 287 287 288
300 300 299 298 298 297 298 298 297 297 298 298 299 299 298 298 297 297 297 297 296 296 296 295 294 293 293 292 292 292 291 291 291 291 291 290 290 290 290 289 289 289 289 289 290 290 290 290 290 290 290 290 290 289 290 290 290 290 290 290 290 290 291 291 290 290 289 288 288 287 286 286 286 287
299 299 299 299 298 297 297 297 297 297 297 297 298 298 297 297 297 297 296 296 296 295 295 294 293 293 292 292 292 292 291 291 291 291 290 290 290 289 289 289 289 289 289 290 290 291 290 290 290 290 290 290 290 290 290 290 290 291 291 290 290 291 291 290 290 289 289 288 288 287 286 286 286 287
299 299 299 299 299 299 298 297 297 296 296 297 297 297 297 297 297 296 296 296 295 294 294 293 293 292 292 292 292 291 291 291 290 290 290 289 289 289 289 289 289 290 290 290 291 291 291 290 290 290 289 289 290 290 290 289 290 291 291 291 290 291 290 290 289 289 288 288 288 287 287 287 287 288
298 299 299 299 299 299 298 297 296 296 296 296 296 296 296 297 297 296 295 295 294 293 293 292 292 292 292 292 291 291 291 290 289 289 289 289 289 289 289 289 289 290 290 290 291 291 291 290 290 290 290 290 290 290 290 290 290 291 292 291 291 291 290 290 289 288 288 288 288 287 287 287 288 288
297 297 298 298 299 298 297 296 296 295 295 295 295 296 296 296 296 296 295 294 293 293 292 292 292 292 292 291 291 290 290 289 289 289 289 289 289 289 289 289 290 290 290 290 290 291 291 291 291 291 291 291 291 290 290 291 291 291 292 292 291 291 291 290 289 288 288 288 288 287 287 287 287 287
297 297 297 298 298 297 297 296 296 296 295 295 295 296 296 296 296 296 294 293 292 292 292 292 291 291 291 291 290 289 289 288 288 289 289 288 288 289 289 290 290 290 290 290 290 291 291 291 291 291 291 291 291 290 290 290 290 291 291 292 291 291 290 289 289 289 289 288 288 288 287 287 287 287
296 296 297 297 297 297 297 296 296 296 296 295 295 295 295 294 294 294 293 293 292 292 292 291 291 291 291 290 289 288 288 288 289 289 289 288 289 289 289 290 290 290 290 290 291 291 291 291 291 291 291 291 291 290 290 290 290 290 291 291 291 291 290 289 289 289 289 289 288 288 288 287 287 287
294 294 295 295 295 296 295 295 295 295 295 295 295 294 293 292 292 292 292 292 292 292 292 291 291 291 290 289 289 288 289 289 289 289 289 289 289 289 289 289 289 290 290 290 291 291 291 291 291 291 291 291 291 290 290 290 290 290 291 291 291 291 289 289 289 289 289 289 289 289 289 288 288 287
292 293 293 293 293 293 293 293 293 293 294 294 294 292 291 291 291 292 292 292 292 291 291 291 290 290 289 289 288 289 289 289 289 289 289 289 289 289 289 290 290 289 289 290 290 291 291 291 291 291 291 291 290 291 291 291 291 291 291 291 291 290 289 289 289 289 289 289 289 289 289 289 288 288
Wind_Speed
8 10 10 10 9 7 10 13 14 18 23 24 22 21 21 19 9 1 1 1 4 8 8 7 9 12 14 16 18 18 18 19 20 20 21 21 22 21 20 19 18 17 16 16 16 17 17 18 18 19 19 19 20 19 17 15 14 13 13 13 12 11 11 11 11 11 12 12 12 13 14 14 15 15
7 8 9 9 8 7 10 12 14 19 22 22 21 17 17 18 14 8 4 2 5 10 10 7 10 14 16 17 18 18 20 21 20 19 19 19 18 18 17 16 15 14 13 13 13 13 14 14 15 16 16 17 17 17 17 16 14 12 11 10 10 10 10 11 11 12 12 13 14 14 15 15 16 16
5 6 7 8 8 8 9 11 15 20 21 20 19 16 15 14 13 15 12 4 7 12 11 9 12 15 16 18 18 19 20 19 18 18 17 16 16 15 14 13 12 11 10 10 10 10 10 11 12 12 14 14 14 15 15 15 13 12 10 9 8 8 8 9 10 11 12 14 15 16 17 17 17 18
5 6 7 8 8 8 9 11 17 20 19 18 17 15 15 11 8 15 14 7 8 13 11 10 13 15 16 17 18 19 19 18 17 16 15 14 13 12 11 10 9 8 7 7 6 6 7 8 8 9 11 12 12 12 13 13 12 11 10 9 8 7 7 8 9 10 12 13 14 16 17 18 18 19
6 7 7 8 8 8 9 13 18 19 17 17 16 14 15 11 8 12 12 8 10 13 11 10 13 15 16 16 17 18 18 17 16 15 14 13 11 10 9 7 6 5 5 4 4 3 4 5 5 6 8 10 11 11 11 12 11 10 10 9 8 7 7 7 8 10 11 12 13 15 16 17 18 18
7 8 8 9 9 9 10 14 16 17 16 16 16 16 16 15 12 12 10 10 13 14 13 12 13 15 16 16 16 17 18 17 15 14 13 12 10 9 7 5 4 3 2 1 1 1 2 2 3 4 5 8 10 11 12 12 11 10 9 8 7 7 7 7 8 9 10 11 12 14 15 16 17 17
6 7 8 9 10 11 12 14 15 16 16 16 17 17 18 19 18 15 12 10 13 16 15 13 14 16 16 16 16 16 16 16 14 13 12 11 10 8 7 5 4 3 1 1 2 3 3 4 4 4 5 7 10 11 11 11 10 9 8 7 7 7 8 8 8 8 8 10 12 13 13 13 15 15
5 6 6 7 8 10 13 15 16 16 17 17 18 19 19 21 22 19 16 13 13 17 18 16 16 17 16 16 16 16 16 15 14 13 12 11 10 9 8 7 6 4 3 3 4 5 5 6 6 5 6 8 11 11 11 11 10 9 8 7 7 8 9 8 8 8 8 10 12 12 12 12 13 13
4 3 4 4 5 6 8 11 14 14 15 15 15 16 17 20 22 21 19 16 14 14 17 18 17 17 16 16 15 15 15 14 14 13 13 12 11 11 10 9 8 7 6 5 6 7 7 6 6 5 7 10 12 12 11 11 11 10 9 9 8 9 9 9 8 9 10 11 13 13 13 13 12 12
3 2 2 2 2 2 3 6 9 10 11 12 13 13 13 15 18 20 19 19 16 13 14 17 18 18 17 16 15 15 15 14 14 13 13 12 12 11 11 11 11 9 7 6 7 7 6 5 5 7 10 12 12 11 11 10 10 10 9 8 8 9 9 9 10 11 13 14 15 15 16 15 14 13
2 2 2 2 2 2 2 3 4 5 6 8 10 11 10 10 12 15 17 19 18 15 14 16 18 18 18 17 16 15 14 14 14 14 13 12 11 10 10 11 10 8 6 6 6 5 5 5 7 10 11 11 10 9 8 8 8 7 7 7 8 9 10 11 13 14 15 15 16 17 17 17 17 16
3 2 2 2 2 3 3 2 2 3 4 5 7 8 9 9 9 12 16 19 18 16 14 15 17 17 17 17 16 15 14 15 16 16 16 14 11 9 9 9 9 7 6 5 4 4 5 7 9 9 9 8 6 6 5 6 6 6 7 8 9 11 12 13 14 15 15 16 16 17 18 18 18 18
6 5 4 4 3 3 3 3 3 3 4 5 6 7 8 9 9 11 14 17 17 15 14 14 15 16 16 16 17 16 16 16 16 16 16 14 11 10 10 10 9 7 6 5 4 4 6 8 8 7 6 5 4 4 5 5 6 7 8 10 11 12 13 14 14 15 14 14 15 16 16 17 17 18
8 8 8 7 6 6 7 6 6 6 6 6 6 7 8 9 10 12 14 16 17 16 15 15 15 16 17 18 18 18 17 16 14 15 17 15 13 12 11 10 8 7 7 5 4 5 6 6 6 5 4 4 5 5 6 7 8 9 10 11 13 13 14 14 14 14 14 15 15 16 17 17 18 19
10 10 11 10 10 10 10 10 10 9 8 8 7 8 9 10 11 12 13 15 16 16 16 17 17 18 20 20 19 17 17 16 15 15 17 16 15 15 12 8 6 7 7 5 4 5 4 4 4 4 4 5 5 6 7 8 10 11 13 14 14 15 15 15 15 15 16 18 19 19 20 20 21 21
12 12 13 14 13 13 13 13 12 12 11 10 10 10 11 12 13 13 13 14 15 16 17 18 19 20 21 20 19 19 18 17 16 16 16 16 16 14 11 7 6 6 6 5 4 4 4 4 4 5 6 6 7 8 10 11 12 14 15 15 15 15 15 15 16 18 20 21 22 22 22 22 22 22
15 15 16 17 17 16 16 16 16 15 14 13 13 13 14 15 16 16 16 16 16 15 16 17 18 19 20 19 19 19 18 17 17 17 16 15 13 11 9 7 6 5 4 5 5 5 5 5 5 5 6 7 9 10 12 13 15 15 15 15 15 15 16 16 18 21 22 22 21 21 21 21 21 22
19 18 19 19 19 19 19 19 19 18 18 17 17 18 18 18 19 19 19 19 18 17 17 18 17 17 16 16 15 16 16 16 17 17 16 14 11 8 6 5 5 4 4 4 4 4 4 5 6 7 7 8 10 11 14 16 16 16 15 15 15 16 17 19 22 22 21 20 19 19 20 20 20 20
21 21 21 22 22 21 20 20 20 19 19 19 20 21 21 21 21 21 21 20 19 18 18 16 13 13 12 10 10 13 13 12 13 13 12 10 8 6 5 5 5 5 4 4 3 3 4 6 7 8 9 10 12 14 16 16 15 15 15 15 16 17 20 22 22 21 19 18 17 17 18 19 19 19
23 23 23 23 23 22 21 21 20 19 19 20 21 23 23 23 22 22 21 20 19 17 16 11 9 10 11 10 11 13 13 12 12 10 9 8 7 7 7 8 7 6 4 4 4 3 4 7 9 10 12 15 17 17 17 15 14 14 15 15 17 20 22 22 20 18 17 17 17 17 17 17 17 18
23 24 24 24 24 24 24 23 21 20 20 21 22 23 24 24 23 21 21 20 17 16 15 12 11 12 13 13 14 14 14 13 11 9 8 8 8 8 8 8 8 5 3 5 5 6 6 8 11 14 17 18 19 18 15 12 12 13 15 17 20 22 22 19 16 16 17 17 17 17 17 16 16 17
22 23 24 25 26 26 26 24 22 21 21 22 23 24 25 24 23 23 22 20 19 17 15 14 13 14 15 15 16 15 13 11 9 8 7 7 7 7 6 6 5 3 4 5 6 7 8 10 13 17 19 18 17 14 10 8 11 14 18 20 22 22 19 16 16 17 18 18 18 17 17 15 15 16
21 22 23 24 25 25 24 23 22 22 22 22 23 24 25 25 26 26 23 21 21 19 17 17 17 18 18 17 15 13 11 10 8 7 5 5 5 5 4 4 3 2 2 4 6 7 9 11 13 14 14 12 9 6 7 11 15 18 20 22 21 19 17 17 17 18 19 19 19 17 16 15 15 16
20 21 22 22 22 22 22 22 22 22 21 21 22 23 25 27 28 25 21 20 20 19 18 20 21 20 19 16 14 12 11 10 8 6 5 4 4 3 4 5 3 1 2 4 7 9 9 10 11 11 10 8 7 9 13 18 20 20 20 19 20 19 19 19 20 20 20 20 18 16 15 14 14 15
19 20 19 19 19 19 19 19 19 20 20 19 20 22 25 27 27 24 20 20 20 20 21 22 22 20 18 16 14 13 11 9 8 6 5 5 4 4 4 4 2 1 3 6 9 9 8 8 9 10 10 9 11 15 19 21 20 19 18 18 21 22 21 21 22 23 21 18 16 15 14 14 14 15
17 18 18 18 18 17 16 16 17 18 18 18 19 21 23 25 26 24 22 22 23 23 23 23 21 19 18 17 15 13 11 10 8 7 7 6 6 4 3 1 1 2 4 6 7 7 7 7 8 9 10 10 13 16 18 19 19 19 19 20 22 23 22 23 23 21 17 15 14 14 15 15 15 15
16 17 18 19 18 17 17 17 17 18 18 18 19 20 22 23 22 21 24 25 25 24 23 22 20 19 18 17 15 14 12 11 10 9 8 6 4 3 1 1 2 2 3 4 5 6 6 7 7 8 10 11 13 14 15 15 16 20 23 24 23 23 22 22 19 16 14 14 15 16 16 16 16 15
16 16 18 19 19 19 19 19 18 18 18 19 19 20 22 22 18 19 25 26 26 25 23 22 21 19 18 17 15 15 14 13 11 8 7 5 3 2 2 2 3 3 2 3 4 5 5 6 7 8 10 12 12 13 14 14 16 22 25 24 23 23 21 17 15 14 15 17 19 19 20 19 18 18
13 15 17 19 20 21 21 21 19 18 17 19 18 17 19 17 14 19 25 26 24 24 23 22 21 19 17 16 15 15 14 12 10 7 6 5 4 4 4 4 5 4 3 3 3 4 5 7 8 8 9 11 11 13 16 16 18 22 24 23 22 21 18 15 15 17 19 20 21 21 20 19 18 17
12 13 14 16 18 20 21 20 19 17 16 16 13 12 14 13 14 21 25 24 24 24 23 22 20 18 17 16 16 15 12 10 8 7 6 6 5 5 6 6 6 5 4 4 5 5 5 6 8 9 9 10 11 13 15 16 18 22 24 22 20 18 17 16 18 19 20 20 20 19 18 17 16 15
12 12 13 14 15 16 16 16 15 15 14 13 11 11 14 16 19 23 24 23 21 20 20 20 19 18 17 17 15 13 11 9 8 7 5 6 6 6 6 6 5 4 4 6 6 5 5 6 7 9 10 11 12 14 14 15 19 22 21 20 19 17 17 19 20 20 20 19 19 19 19 18 17 15
12 12 11 11 11 11 11 10 10 10 10 10 11 14 16 17 18 21 22 20 16 14 15 17 18 18 17 15 13 11 10 8 8 6 5 5 6 6 5 4 4 3 6 8 6 4 5 7 8 10 11 12 13 13 14 15 18 19 17 18 20 19 18 19 20 19 19 18 18 19 20 20 19 18
11 11 11 10 9 7 6 7 7 7 7 9 12 15 16 17 18 19 19 17 15 15 16 17 17 17 15 13 12 11 9 8 7 6 5 4 4 3 3 2 3 3 7 9 8 7 8 10 10 11 12 12 13 13 12 13 15 16 16 18 19 17 15 16 17 18 18 19 19 21 22 21 20 18
10 11 10 9 8 7 7 8 10 10 10 11 13 14 16 18 19 19 18 17 18 19 18 17 16 16 14 13 12 11 9 8 7 5 4 2 1 1 1 2 2 4 7 9 9 10 11 12 13 15 16 16 16 13 8 8 11 15 16 16 15 13 13 15 16 17 17 18 18 20 22 21 19 17
10 11 10 10 9 8 9 11 14 15 15 16 17 16 15 16 17 17 18 18 19 19 17 16 16 15 14 13 12 10 8 7 6 5 4 3 2 1 1 2 3 6 8 9 10 11 12 13 15 17 18 19 17 13 9 7 10 14 14 13 11 11 13 16 17 17 17 17 16 16 17 18 18 17
11 10 10 10 9 8 10 13 15 17 19 21 22 20 19 18 18 18 18 18 18 18 17 17 17 16 14 13 11 10 8 7 7 6 5 4 3 1 1 3 5 6 7 8 10 11 11 13 14 13 13 15 15 11 10 13 14 13 13 12 12 13 16 18 17 17 16 15 14 13 14 16 17 15
11 10 10 10 9 9 11 13 15 16 18 20 22 21 22 23 21 18 18 18 18 18 18 19 18 16 15 14 12 11 10 8 8 7 6 4 2 0 2 4 5 6 7 9 10 11 11 12 12 10 9 9 9 7 12 20 20 15 12 13 15 17 17 18 17 16 15 14 14 14 14 14 13 12
9 9 10 11 10 10 11 13 16 16 17 19 20 21 21 21 19 17 19 20 20 20 19 19 17 16 16 15 13 12 11 10 8 6 5 3 1 1 2 4 5 6 8 9 10 10 10 11 12 10 7 6 6 6 11 19 23 19 15 16 17 17 16 15 15 15 14 14 16 17 15 11 8 9
8 9 9 10 11 11 12 13 16 17 17 18 21 22 21 20 19 20 21 21 21 21 20 18 17 17 16 14 12 10 10 9 8 5 4 3 2 2 2 3 4 6 9 10 9 10 11 11 11 11 8 7 8 9 10 15 21 20 16 13 13 14 13 11 11 11 11 14 17 18 14 8 5 8
8 10 11 12 13 13 13 13 15 17 17 18 21 22 20 20 21 22 22 21 19 19 18 18 17 17 15 13 11 10 9 8 6 5 4 4 3 2 2 3 6 7 9 10 10 11 12 11 11 11 10 10 11 12 13 15 19 20 17 13 11 12 10 8 8 9 9 12 16 17 14 10 9 10
8 10 12 13 14 15 14 12 12 14 15 17 20 20 18 18 20 21 20 19 18 17 18 17 16 14 13 12 10 9 8 7 6 6 6 5 4 2 2 4 6 7 8 9 11 12 12 11 10 10 11 11 11 10 10 11 13 16 17 15 12 9 8 7 6 6 8 12 15 14 13 11 10 10
7 8 9 9 10 12 12 10 10 12 13 16 18 18 17 19 20 20 19 19 18 18 17 15 13 12 11 10 7 5 5 6 7 7 6 5 3 2 3 4 5 6 7 9 11 12 11 11 11 11 10 11 10 7 7 8 10 13 16 15 11 8 7 6 4 4 7 11 13 12 13 11 9 9
7 7 8 8 8 9 9 8 8 10 12 15 17 18 17 18 19 21 22 21 20 17 14 12 11 11 10 8 6 4 5 7 8 7 5 4 3 3 4 4 5 6 8 10 11 12 11 11 12 12 11 11 10 7 8 10 11 11 13 13 10 7 7 6 4 4 7 10 10 11 12 10 8 7
10 8 6 5 4 4 4 4 5 7 10 12 15 16 15 16 19 21 21 20 17 14 11 11 11 10 8 7 7 7 8 8 7 6 5 3 2 2 2 3 4 7 10 12 12 12 12 11 12 12 12 12 10 8 9 11 11 11 11 10 8 7 7 6 4 5 7 8 9 10 10 10 9 8
12 9 8 7 5 4 4 3 0 3 6 10 12 13 15 18 20 20 18 16 14 12 11 11 10 9 7 7 8 9 9 8 5 3 3 3 2 3 3 3 4 7 10 12 13 13 13 13 13 12 13 12 11 10 10 10 10 10 10 9 6 6 7 6 5 6 7 7 7 9 9 9 10 9
Wind_Direction
201 199 198 201 198 187 184 184 183 179 171 165 164 161 155 149 141 128 192 191 179 171 163 153 158 157 147 141 138 132 127 124 122 120 119 118 115 113 111 107 103 99 94 89 84 80 75 71 67 62 58 53 49 45 39 35 33 33 35 37 39 40 38 36 36 34 30 26 21 17 14 11 8 5
190 194 193 197 198 182 174 180 183 180 175 171 169 169 164 157 153 153 152 186 198 182 174 164 161 159 152 147 144 138 133 128 124 123 121 121 119 115 112 108 104 100 95 90 86 81 75 70 65 60 56 51 46 41 36 29 25 24 25 24 26 28 28 27 26 24 20 17 13 10 7 5 3 1
171 178 180 183 183 172 167 177 183 181 179 178 176 173 170 166 167 163 152 155 198 189 181 168 163 160 156 154 151 146 142 137 132 130 126 124 122 118 115 111 106 103 99 94 89 82 76 69 61 55 50 46 41 36 31 25 18 15 13 9 6 8 12 13 14 14 11 9 7 4 2 1 0 359
147 154 159 164 168 167 166 172 178 181 183 185 185 182 177 175 178 173 163 150 178 187 185 173 170 169 163 161 160 157 154 149 145 141 136 133 129 124 120 115 110 106 100 96 89 81 76 66 56 50 43 37 33 27 23 17 11 5 0 356 351 348 352 357 360 3 3 3 2 360 358 358 359 357
137 146 150 157 166 170 168 169 175 182 187 192 196 197 196 198 191 183 177 155 159 181 189 182 181 180 174 170 168 167 166 161 157 153 148 145 141 137 133 126 118 111 99 93 83 73 69 57 44 37 31 25 19 14 10 6 1 355 351 349 344 337 336 343 349 354 357 358 358 355 354 355 355 355
143 156 155 156 164 170 172 173 180 188 194 201 207 212 219 226 218 201 192 168 163 178 189 189 189 187 185 181 176 175 175 172 168 164 160 158 156 154 152 148 145 137 118 94 55 19 11 15 9 2 2 2 360 358 355 351 348 346 346 346 342 337 335 336 340 345 350 353 353 349 348 349 349 351
148 163 164 163 168 176 182 185 191 199 204 211 219 225 231 238 236 225 213 193 177 178 184 190 193 190 190 190 186 182 181 181 182 179 176 174 171 170 171 173 182 193 209 285 315 324 320 309 304 303 315 336 345 346 342 338 336 337 338 339 339 339 339 335 334 338 343 347 346 342 340 341 343 347
150 158 165 170 178 187 194 201 206 212 219 225 232 239 241 242 242 233 222 217 201 185 184 189 194 194 193 193 193 191 189 193 196 196 196 195 194 195 196 199 209 220 243 272 288 297 295 291 289 286 299 324 336 337 332 327 327 328 326 326 329 333 334 330 327 329 333 337 337 334 331 329 332 337
154 152 156 156 169 190 205 215 221 225 232 238 242 249 249 245 243 237 225 220 217 203 194 191 192 197 200 200 200 200 200 203 207 210 212 213 215 218 220 224 230 238 250 258 270 281 283 282 285 291 308 325 330 328 325 321 320 321 321 322 323 325 326 321 318 321 325 328 328 324 319 313 313 319
162 158 174 166 160 176 202 224 233 235 239 244 247 252 256 252 246 240 227 218 221 224 212 199 194 199 205 208 209 207 208 213 217 222 225 226 228 231 233 235 238 244 248 250 264 275 273 274 290 306 318 324 325 323 321 319 319 320 322 325 326 327 327 325 325 328 328 326 322 318 312 304 297 298
197 180 189 206 208 212 220 229 242 254 257 259 259 262 266 261 250 240 227 218 220 226 220 206 200 203 207 212 216 216 216 220 224 230 234 235 237 239 234 228 225 227 231 239 252 260 267 287 305 315 321 322 323 323 322 320 321 322 323 325 327 328 329 330 331 330 328 324 319 314 310 302 294 289
234 224 217 229 232 230 235 244 267 295 300 293 284 281 277 269 257 237 222 216 219 223 218 208 205 207 209 213 218 222 221 222 227 230 232 236 238 229 210 199 195 198 209 219 227 250 286 304 312 318 320 321 323 324 323 321 320 323 325 327 328 329 329 330 329 328 326 322 317 312 307 301 294 289
256 254 255 264 269 268 266 273 289 300 304 301 293 287 279 266 254 235 222 218 220 221 216 209 206 207 210 213 216 218 220 224 228 228 226 226 220 202 186 178 182 193 205 217 235 270 299 311 315 314 311 312 317 315 315 317 319 324 328 329 329 330 330 329 328 326 323 319 315 311 307 303 298 295
259 258 259 263 269 276 278 278 282 285 287 288 282 278 274 262 248 236 229 226 225 223 221 217 211 207 210 214 217 220 223 226 227 222 217 210 196 182 175 173 185 202 212 234 272 295 307 311 307 303 305 311 314 313 315 320 326 329 330 329 329 328 327 326 324 323 321 319 317 313 310 308 305 303
260 259 260 263 265 270 274 273 274 275 275 276 273 269 267 263 255 244 236 234 231 230 229 224 218 214 217 218 217 219 222 223 221 215 211 203 190 184 180 176 190 211 226 253 293 306 307 298 288 295 309 316 319 325 329 332 331 329 327 326 325 323 322 321 320 321 321 320 317 313 311 307 304 301
267 267 265 265 266 269 270 269 268 268 268 268 264 258 254 254 256 252 247 245 241 239 237 231 225 224 224 220 216 216 218 216 210 203 201 198 193 191 188 184 196 218 244 275 297 297 285 272 274 294 309 319 326 330 331 331 327 324 321 319 317 316 316 315 317 319 320 318 315 312 310 307 302 298
268 270 268 265 265 266 266 267 268 268 269 268 261 253 247 244 247 248 249 249 246 245 244 239 236 234 230 226 222 219 216 210 198 188 187 189 188 188 185 186 200 225 259 281 287 280 270 266 275 290 302 311 318 320 321 323 321 317 313 310 309 311 312 316 321 322 321 319 317 316 314 312 309 304
267 270 269 265 265 267 267 268 268 266 267 268 263 256 249 245 245 245 245 246 245 245 243 242 246 243 235 233 228 214 205 203 195 185 180 180 179 180 180 187 207 230 254 271 281 270 258 267 282 287 290 298 306 311 315 317 316 311 305 304 308 313 318 323 325 324 323 322 321 320 319 318 317 314
267 270 270 266 267 270 270 269 269 266 265 264 261 256 251 247 244 241 241 242 243 243 241 239 241 233 216 210 204 191 185 192 193 187 182 181 182 184 181 188 204 219 236 260 280 267 258 281 296 297 297 301 306 312 316 316 312 304 300 304 311 317 322 324 323 321 321 320 319 318 316 317 317 314
266 270 271 268 268 269 270 271 272 271 267 261 256 251 247 242 239 236 236 235 235 236 232 219 206 201 194 191 194 193 193 199 198 190 182 180 182 182 178 183 195 206 231 270 299 304 297 307 313 311 312 311 312 317 319 315 305 297 298 305 312 317 320 319 316 316 317 316 315 314 311 310 309 307
266 267 267 267 269 271 273 275 276 274 269 261 253 247 242 237 233 230 229 227 223 221 215 200 192 198 199 195 193 192 193 198 199 195 187 180 182 184 181 183 191 203 244 287 310 320 318 320 318 316 317 316 317 321 322 313 299 293 296 303 308 313 315 312 308 309 312 314 313 310 307 303 303 303
266 265 264 266 269 272 274 276 277 276 270 262 254 246 238 233 230 228 226 221 212 207 203 197 193 191 188 186 183 181 184 190 196 201 196 187 185 189 189 187 188 207 265 288 310 323 322 321 322 322 321 319 319 320 318 307 298 296 301 306 311 314 314 308 304 306 310 314 312 308 304 300 299 300
270 269 268 269 270 272 274 276 277 274 269 262 256 247 238 234 233 232 228 219 210 203 195 187 182 178 176 179 181 182 185 188 189 192 187 181 185 190 190 188 184 202 265 285 314 326 321 318 321 324 324 322 319 314 304 305 306 308 312 314 315 316 313 307 306 308 311 313 311 305 300 297 297 297
274 272 272 273 275 277 279 278 275 271 266 261 255 246 239 237 236 233 227 217 207 197 183 176 176 175 174 178 181 182 184 183 180 177 173 174 183 181 172 171 172 196 267 294 316 320 315 311 313 315 314 304 294 297 303 309 313 317 320 318 314 314 313 310 310 312 312 311 307 300 296 293 291 293
277 276 276 278 281 281 278 276 273 270 266 261 253 248 245 244 242 237 225 210 197 188 179 174 173 174 174 175 177 178 176 172 168 164 161 159 154 146 145 144 137 305 291 294 302 304 302 303 306 309 306 293 290 301 308 313 318 321 320 316 313 313 313 313 312 312 311 309 304 298 292 288 286 290
288 288 287 286 286 284 278 273 270 267 265 259 253 252 252 251 248 237 216 197 186 181 177 172 170 172 173 171 170 168 162 155 152 148 142 135 128 122 116 107 331 299 286 285 292 299 302 305 307 309 310 303 300 306 310 313 319 322 320 318 317 316 316 316 316 317 316 313 308 302 298 295 295 297
295 295 293 290 289 288 285 281 276 272 266 258 253 251 249 249 246 226 202 189 183 179 176 173 172 172 173 169 163 159 154 146 143 139 131 125 118 106 73 356 335 319 298 292 302 308 307 307 307 308 311 310 308 309 310 310 316 320 320 322 324 325 324 322 323 326 327 320 314 310 308 306 305 305
291 290 288 288 289 289 289 287 284 281 275 264 255 248 245 245 237 212 196 188 182 179 177 177 175 171 170 168 160 155 150 143 138 135 125 116 101 75 50 39 36 24 357 329 319 314 309 308 306 305 308 310 309 309 309 308 311 315 317 320 325 329 330 330 333 336 332 324 317 314 314 313 312 310
298 292 289 289 291 292 293 292 289 286 281 271 260 250 246 244 226 205 199 191 183 180 178 178 174 167 165 164 157 152 147 140 136 132 121 112 98 78 69 65 58 47 36 17 352 336 322 313 308 304 305 308 308 308 308 306 306 311 314 317 321 328 333 335 336 337 333 326 320 319 322 325 324 321
317 309 301 297 295 294 295 295 292 287 280 269 259 248 243 232 205 196 197 192 186 184 181 175 169 162 158 157 151 146 143 138 135 132 127 122 107 84 75 75 72 64 48 22 1 343 321 310 310 309 310 312 311 309 309 305 302 306 313 318 320 325 333 335 334 335 334 327 322 324 328 330 328 326
321 317 311 305 300 299 299 296 289 279 269 257 241 224 220 211 195 192 195 192 186 182 174 165 158 155 154 152 147 144 144 141 138 135 131 120 104 90 84 85 88 72 34 12 3 348 325 319 320 317 318 319 314 313 313 308 300 302 312 324 326 326 332 336 333 333 333 328 325 326 327 326 324 323
329 327 321 313 307 304 300 292 277 261 248 234 213 198 196 194 190 191 191 184 176 172 166 157 153 154 155 154 151 150 149 147 144 140 131 112 100 99 93 86 85 56 17 9 11 4 344 340 336 330 329 323 316 316 317 310 306 308 318 331 333 330 333 335 332 331 334 333 330 329 327 325 325 326
329 327 321 314 306 296 276 254 236 218 202 189 180 178 179 179 179 179 177 173 172 175 172 165 161 161 161 161 161 157 155 154 151 145 137 115 100 110 103 71 65 35 5 0 4 2 355 352 346 340 339 333 326 325 317 303 309 323 330 333 334 330 328 332 333 334 337 338 335 331 328 328 331 332
314 314 305 297 291 274 246 223 207 194 184 174 167 165 164 165 167 169 169 170 171 170 168 165 166 168 168 169 168 166 165 166 161 155 155 154 142 137 83 47 41 14 355 354 358 358 354 354 351 346 345 344 341 342 334 302 309 325 332 333 332 325 323 332 337 336 337 337 334 329 326 328 334 338
295 299 293 289 282 256 231 218 205 197 193 185 176 169 163 163 164 163 161 161 162 161 161 164 167 170 174 176 175 173 173 174 173 176 188 208 242 277 8 29 11 360 354 353 356 355 354 357 357 353 350 348 347 351 359 346 326 324 327 331 330 324 325 331 333 331 333 334 332 327 324 326 333 341
283 283 281 286 283 254 232 222 208 196 190 185 180 177 173 168 164 160 159 160 162 161 161 163 167 172 177 180 178 177 178 182 187 197 209 225 244 265 14 15 5 359 353 349 353 357 360 3 5 360 350 346 344 339 337 340 337 328 324 328 329 326 326 326 326 328 333 334 332 330 325 322 329 343
278 277 277 285 284 263 243 229 212 199 190 184 181 180 176 170 166 165 164 164 164 163 163 166 169 172 176 180 182 182 185 193 201 208 215 217 209 166 18 16 11 357 345 345 354 2 7 9 9 4 349 340 340 324 319 329 336 338 333 327 325 324 324 322 322 329 336 337 335 336 331 325 331 349
278 279 284 293 295 283 261 240 224 213 203 193 186 182 177 172 168 167 165 164 164 164 165 167 170 172 178 185 188 188 191 199 208 211 205 190 155 68 35 25 7 343 337 347 358 7 12 12 7 1 346 328 319 312 317 324 328 333 336 328 320 320 323 323 324 329 337 341 343 344 340 329 333 354
286 286 289 293 294 291 278 256 240 231 221 205 192 186 181 176 172 170 170 169 168 166 166 168 172 176 183 189 191 193 198 205 207 200 178 153 117 85 58 16 349 338 340 350 0 8 13 13 3 350 334 313 301 302 306 308 310 318 332 335 324 320 324 324 323 327 336 344 348 351 352 355 13 20
289 284 283 282 282 285 283 268 249 240 231 212 197 193 189 183 177 174 173 170 168 169 170 171 173 179 185 189 190 195 201 202 197 178 153 136 120 100 49 355 347 343 344 352 4 9 10 8 357 339 324 311 304 304 306 303 303 312 328 341 337 329 326 322 321 324 333 344 350 354 360 7 18 21
303 292 288 286 284 285 286 274 254 246 237 218 204 200 195 186 181 180 177 173 173 175 174 172 175 181 185 186 189 197 201 191 171 150 137 130 121 89 22 357 346 338 341 355 7 9 5 359 348 336 327 320 316 314 311 306 302 310 324 337 345 340 331 327 325 323 333 343 350 356 360 358 356 3
328 308 299 296 294 291 288 277 257 246 238 224 213 206 199 192 188 186 182 178 177 176 173 172 176 180 179 177 182 198 198 172 149 138 132 123 105 56 9 349 332 330 348 6 9 6 3 355 346 342 340 337 333 324 308 300 299 306 320 334 347 344 334 332 330 325 335 343 349 356 1 359 352 352
342 321 307 303 300 294 289 278 255 241 237 230 220 212 205 197 189 182 178 174 171 168 170 174 177 178 178 175 169 174 172 156 145 141 134 113 82 36 4 348 342 351 8 15 12 6 2 357 351 349 352 354 350 335 310 304 303 304 315 329 340 341 336 332 318 318 335 343 346 353 1 3 357 345
2 353 340 331 323 312 307 293 254 237 232 225 217 210 203 192 182 175 170 167 164 165 172 180 181 181 180 170 158 156 156 152 150 147 129 101 50 354 343 342 356 10 14 14 12 7 0 1 3 1 360 1 356 341 322 313 308 307 316 327 335 338 341 339 321 315 331 342 347 354 1 5 5 360
27 28 27 27 27 24 21 18 330 204 202 204 201 193 181 172 166 163 162 163 166 172 178 179 178 178 175 167 162 159 154 150 154 146 109 79 2 322 316 326 12 27 16 7 8 8 1 2 8 7 4 4 358 347 337 326 314 313 322 330 334 337 340 340 332 330 333 339 344 349 356 5 12 14